#timestamp,LO_Frequency,Hit,StdDev 
1580486415.2,286046998.8,N
1580486435.0,286047002.3,N
1580486435.9,286047002.3,N
1580486455.8,286046999.9,N
1580486475.6,286046998.6,N
1580486495.4,286047000.8,N
1580486515.3,286047002.3,N
1580486535.1,286047001.6,N
1580486555.9,286047003.9,N
1580486575.7,286047003.1,N
1580486595.5,286047003.3,N
1580486615.4,286047005.4,N
1580486635.2,286047005.4,N
1580486655.0,286047007.0,Y
1580486656.0,286047007.0,P
1580486675.8,286047009.2,P
1580486695.6,286047008.6,N
1580486715.5,286047008.8,Y
1580486735.3,286046998.4,P
1580486755.1,286046998.4,N
1580486775.3,286046998.6,N
1580486795.2,286046996.5,N
1580486815.9,286046998.5,N
1580486835.7,286046998.6,N
1580486855.6,286047001.5,N
1580486875.4,286047002.1,N
1580486895.3,286046999.8,N
1580486915.1,286047001.9,N
1580486916.0,286047001.9,N
1580486935.8,286047003.3,N
1580486955.7,286047004.6,N
1580486975.5,286047004.9,N
1580486995.3,286047004.8,N
1580487015.2,286047005.3,N
1580487035.0,286047006.7,N
1580487035.9,286047006.7,N
1580487055.8,286047007.3,N
1580487075.6,286047003.1,N
1580487095.4,286047005.7,N
1580487115.3,286047006.8,N
1580487135.1,286047007.6,N
1580487155.8,286047006.4,N
1580487175.7,286047007.1,N
1580487195.5,286047006.1,N
1580487215.4,286047006.6,N
1580487235.2,286047008.0,N
1580487255.0,286047008.2,N
1580487255.9,286047008.2,N
1580487275.8,286047008.6,N
1580487295.6,286047011.9,Y
1580487315.5,286047004.4,P
1580487335.3,286046999.9,N
1580487355.1,286047000.8,N
1580487375.9,286047001.0,N
1580487395.7,286047005.7,Y
1580487415.5,286046999.8,P
1580487435.4,286047004.4,P
1580487455.2,286047001.8,N
1580487475.1,286047005.4,Y
1580487476.0,286047005.4,P
1580487495.8,286047005.6,P
1580487515.6,286046999.8,N
1580487535.5,286047001.8,N
1580487555.3,286047002.4,N
1580487575.1,286047003.8,N
1580487595.9,286047002.0,N
1580487615.7,286047002.1,N
1580487635.6,286047000.0,N
1580487655.4,286047001.9,N
1580487675.2,286047002.7,N
1580487695.1,286047000.9,N
1580487696.0,286047000.9,N
1580487715.8,286047000.7,N
1580487735.7,286046998.9,N
1580487755.5,286046998.7,N
1580487775.3,286046998.2,N
1580487795.2,286046998.9,N
1580487815.0,286047001.2,N
1580487815.9,286047001.2,N
1580487835.8,286047000.4,N
1580487855.6,286047001.0,N
1580487875.4,286047001.1,N
1580487895.3,286047000.5,N
1580487915.1,286047000.6,N
1580487935.8,286047004.3,N
1580487955.7,286047002.6,N
1580487975.5,286047005.3,N
1580487995.4,286047004.6,N
1580488015.2,286047003.0,N
1580488035.0,286047007.5,Y
1580488035.9,286047007.5,P
1580488055.8,286047000.2,N
1580488075.6,286047002.3,N
1580488095.4,286047001.7,N
1580488115.3,286047001.5,N
1580488135.1,286046999.7,N
1580488155.9,286046998.7,N
1580488175.7,286046998.9,N
1580488195.5,286046999.5,N
1580488215.4,286046997.9,N
1580488235.2,286046995.1,N
1580488255.0,286046996.6,N
1580488255.9,286046996.6,N
1580488275.8,286046997.2,N
1580488295.6,286046997.9,N
1580488315.5,286046995.9,N
1580488335.3,286046997.5,N
1580488355.1,286046995.8,N
1580488375.9,286046995.3,N
1580488395.7,286046994.5,N
1580488415.5,286046994.5,N
1580488435.4,286046997.2,N
1580488455.2,286046997.0,N
1580488475.1,286046997.9,N
1580488476.0,286046997.9,N
1580488495.8,286046995.1,N
1580488515.6,286046994.0,N
1580488535.5,286046992.1,N
1580488555.3,286046992.5,N
1580488575.2,286046990.4,Y
1580488595.9,286046995.5,P
1580488615.7,286046994.6,P
1580488635.6,286046994.5,P
1580488655.4,286046996.3,N
1580488675.2,286046992.1,Y
1580488695.1,286046994.9,P
1580488696.0,286046994.9,P
1580488715.8,286047011.9,P
1580488735.7,286046993.9,N
1580488755.5,286046995.7,N
1580488775.3,286046997.1,N
1580488795.2,286046996.1,N
1580488815.0,286046996.2,N
1580488815.9,286046996.2,N
1580488835.8,286046991.8,N
1580488855.6,286046986.3,N
1580488875.4,286046991.0,N
1580488895.3,286046993.6,N
1580488915.1,286046991.8,N
1580488935.8,286046990.9,N
1580488955.7,286046989.4,N
1580488975.5,286046986.5,N
1580488995.4,286046985.5,N
1580489015.2,286046985.2,N
1580489035.0,286046982.8,Y
1580489035.9,286046982.8,P
1580489055.8,286046988.8,N
1580489075.6,286046988.6,N
1580489095.4,286046991.8,N
1580489115.3,286046993.7,N
1580489135.1,286046994.1,N
1580489155.9,286046993.8,N
1580489175.7,286046997.8,N
1580489195.5,286046998.9,N
1580489215.4,286046997.3,N
1580489235.2,286046996.7,N
1580489255.0,286046995.4,N
1580489256.0,286046995.4,N
1580489275.8,286046995.5,N
1580489295.6,286046997.0,N
1580489315.5,286046996.9,N
1580489335.3,286046994.9,N
1580489355.1,286046996.8,N
1580489375.9,286046996.7,N
1580489395.7,286046999.6,N
1580489415.6,286046997.7,N
1580489435.4,286046998.2,N
1580489455.2,286047001.8,N
1580489475.1,286047002.4,N
1580489476.0,286047002.4,N
1580489495.8,286047000.5,N
1580489515.7,286046999.4,N
1580489535.5,286046997.3,N
1580489555.3,286046995.2,N
1580489575.2,286046994.9,N
1580489595.9,286046998.8,N
1580489615.7,286047000.9,N
1580489635.6,286047001.3,N
1580489655.4,286047004.0,N
1580489675.3,286047001.4,N
1580489695.1,286047003.7,N
1580489696.0,286047003.7,N
1580489715.8,286047004.5,N
1580489735.7,286047004.8,N
1580489755.5,286047003.6,N
1580489775.3,286047001.9,N
1580489795.2,286047003.7,N
1580489815.0,286047002.3,N
1580489815.9,286047002.3,N
1580489835.8,286047000.7,N
1580489855.6,286046998.2,N
1580489875.4,286047000.9,N
1580489895.3,286046998.1,N
1580489915.1,286046997.0,N
1580489935.8,286046999.4,N
1580489955.7,286046997.0,N
1580489975.5,286046994.5,N
1580489995.4,286046994.4,N
